This demonstration page uses our WeatherBlox Daily Observations layout. Learn more.

Left ArrowRight Arrow

41.86663, -103.66717

Hourly Observations for April 12, 2016

Temp ( °F °C ) Dew Point ( °F °C ) Humidity (%) Winds ( mph kmh ) Pressure ( in mb ) Visibility ( mi km ) Precip ( " mm )
12:53 am 00:53 Clear 40 4.4 36 2.2 86 86 E 8 13 30.03 1017 10 16 N/A
1:53 am 01:53 Clear 38 3.3 35 1.7 89 89 E 7 11 30.01 1016 10 16 N/A
2:53 am 02:53 Clear 39 3.9 35 1.7 86 86 E 10 17 29.99 1016 10 16 N/A
3:53 am 03:53 Clear 38 3.3 35 1.7 89 89 E 9 15 29.99 1016 10 16 N/A
4:53 am 04:53 Clear 37 2.8 34 1.1 89 89 E 9 15 29.99 1016 10 16 N/A
5:53 am 05:53 Clear 37 2.8 34 1.1 89 89 E 8 13 29.99 1016 10 16 N/A
6:53 am 06:53 Sunny 37 2.8 34 1.1 89 89 E 6 9 30.00 1016 10 16 N/A
7:53 am 07:53 Sunny 43 6.1 38 3.3 82 82 E 6 9 30.01 1016 10 16 N/A
8:53 am 08:53 Sunny 50 10 40 4.4 68 68 SE 3 6 29.99 1016 10 16 N/A
9:53 am 09:53 Sunny 57 13.9 41 5 55 55 N N/A 29.98 1015 10 16 N/A
10:53 am 10:53 Sunny 65 18.3 42 5.6 43 43 W 6 9 29.95 1014 10 16 N/A
11:53 am 11:53 Mostly Sunny 71 21.7 40 4.4 32 32 NW 9 15 29.92 1013 10 16 N/A
12:53 pm 12:53 Sunny 73 22.8 35 1.7 25 25 VRB 3 6 29.90 1012 10 16 N/A
1:53 pm 13:53 Sunny 73 22.8 33 0.6 23 23 VRB 3 6 29.89 1012 10 16 N/A
2:53 pm 14:53 Mostly Sunny 73 22.8 32 undefined 22 22 VRB 3 6 29.87 1012 10 16 N/A
3:19 pm 15:19 Partly Cloudy with Nearby Thunderstorms 72 22.2 34 1.1 25 25 NW 10 17 29.71 1006 10 16 N/A
3:34 pm 15:34 Partly Cloudy 73 23 36 2 25 25 N 9 15 29.71 1006 10 16 N/A
3:53 pm 15:53 Mostly Sunny 75 23.9 33 0.6 22 22 VRB 3 6 29.86 1011 10 16 N/A
4:53 pm 16:53 Mostly Cloudy 68 20 41 5 38 38 N N/A 29.88 1012 10 16 N/A
5:53 pm 17:53 Sunny 70 21.1 37 2.8 30 30 N N/A 29.88 1012 10 16 N/A
6:53 pm 18:53 Sunny 69 20.6 40 4.4 35 35 N N/A 29.89 1012 10 16 N/A
7:53 pm 19:53 Clear 56 13.3 40 4.4 55 55 NNE 6 9 29.92 1013 10 16 N/A
8:53 pm 20:53 Clear 58 14.4 37 2.8 46 46 S 3 6 29.91 1013 10 16 N/A
9:53 pm 21:53 Clear 51 10.6 35 1.7 54 54 SE 3 6 29.92 1013 10 16 N/A
10:53 pm 22:53 Clear 45 7.2 35 1.7 68 68 NE 6 9 29.92 1013 10 16 N/A
11:53 pm 23:53 Clear 41 5 34 1.1 76 76 N 6 9 29.91 1013 10 16 N/A

Powered by AerisWeather